EW5462 Weather Reports


Display with metric or nautical units.
time (UTC)temp
F
wind
direction
speed
MPH
gust
MPH
rain 1hr
in
rain 24hr
in
rain mn
in
humidity
%
barometer
mb
20260906001816 99 0.0 0.0 0.00 0.00 0.00 28 1007.1
20260906001717 99 0.0 0.0 0.00 0.00 0.00 28 1007.1
20260906000716 99 0.0 0.0 0.00 0.00 0.00 28 1007.2
20260905235717 99 85 0.0 0.0 0.00 0.00 0.00 28 1007.3
20260905234717 99 0.0 0.0 0.00 0.00 0.00 28 1007.3
20260905233716 99 28 1.0 4.0 0.00 0.00 0.00 28 1007.3
20260905232716 99 0.0 0.0 0.00 0.00 0.00 28 1007.3
20260905231717 99 0.0 0.0 0.00 0.00 0.00 27 1007.4
20260905230717 99 290 3.0 5.0 0.00 0.00 0.00 27 1007.6
20260905225717 99 277 1.0 3.0 0.00 0.00 0.00 27 1007.6
20260905224716 99 233 4.0 6.0 0.00 0.00 0.00 28 1007.7
20260905223717 98 0.0 0.0 0.00 0.00 0.00 29 1007.8
20260905222717 98 0.0 0.0 0.00 0.00 0.00 31 1007.9
20260905221717 98 296 4.0 6.0 0.00 0.00 0.00 31 1008.1
20260905220716 98 239 1.0 6.0 0.00 0.00 0.00 31 1008.2
20260905215716 97 250 2.0 5.0 0.00 0.00 0.00 32 1008.3
20260905214717 98 233 2.0 4.0 0.00 0.00 0.00 32 1008.6
20260905213717 98 251 3.0 4.0 0.00 0.00 0.00 32 1008.7
20260905212716 98 242 2.0 4.0 0.00 0.00 0.00 32 1008.7
20260905212017 98 0.0 0.0 0.00 0.00 0.00 32 1008.8
20260905211017 98 245 3.0 5.0 0.00 0.00 0.00 32 1008.9
20260905210017 99 255 0.0 3.0 0.00 0.00 0.00 31 1009.0
20260905205017 98 235 0.0 1.0 0.00 0.00 0.00 31 1009.1
20260905204016 98 0.0 0.0 0.00 0.00 0.00 31 1009.1
20260905203017 99 316 3.0 6.0 0.00 0.00 0.00 30 1009.2
20260905202017 98 0.0 0.0 0.00 0.00 0.00 31 1009.3
20260905201016 98 0.0 0.0 0.00 0.00 0.00 31 1009.4
20260905200017 99 0.0 0.0 0.00 0.00 0.00 31 1009.5
20260905195017 97 0.0 0.0 0.00 0.00 0.00 32 1009.6
20260905194017 97 0.0 0.0 0.00 0.00 0.00 32 1009.7
20260905193016 98 0.0 0.0 0.00 0.00 0.00 32 1009.8
20260905192017 97 342 0.0 1.0 0.00 0.00 0.00 32 1009.9
20260905191017 95 0.0 0.0 0.00 0.00 0.00 33 1010.1
20260905190016 97 0.0 0.0 0.00 0.00 0.00 33 1010.2
20260905185017 96 128 0.0 1.0 0.00 0.00 0.00 33 1010.2
20260905184017 96 0.0 0.0 0.00 0.00 0.00 33 1010.3
20260905183016 99 0.0 0.0 0.00 0.00 0.00 31 1010.4
20260905182016 97 129 0.0 2.0 0.00 0.00 0.00 34 1010.5
20260905181017 96 0.0 0.0 0.00 0.00 0.00 33 1010.6
20260905180017 96 22 1.0 3.0 0.00 0.00 0.00 28 1010.6
20260905175017 95 11 3.0 4.0 0.00 0.00 0.00 26 1010.8
20260905174017 94 12 2.0 5.0 0.00 0.00 0.00 24 1010.7
20260905173016 93 299 1.0 4.0 0.00 0.00 0.00 24 1010.7
20260905172017 93 49 1.0 4.0 0.00 0.00 0.00 24 1010.6
20260905171017 92 0.0 0.0 0.00 0.00 0.00 23 1010.7
20260905170017 92 348 4.0 5.0 0.00 0.00 0.00 21 1010.7
20260905165817 92 358 1.0 4.0 0.00 0.00 0.00 22 1010.7
20260905164817 91 32 1.0 4.0 0.00 0.00 0.00 22 1010.6
20260905163816 89 13 1.0 3.0 0.00 0.00 0.00 22 1010.6
20260905162816 88 338 2.0 5.0 0.00 0.00 0.00 25 1010.7
20260905161817 88 355 0.0 2.0 0.00 0.00 0.00 24 1010.6
20260905160817 87 194 0.0 0.0 0.00 0.00 0.00 25 1010.6
20260905155816 87 358 0.0 1.0 0.00 0.00 0.00 25 1010.4
20260905154817 88 56 2.0 5.0 0.00 0.00 0.00 24 1010.5
20260905153817 87 0.0 0.0 0.00 0.00 0.00 22 1010.6
20260905152817 87 296 0.0 0.0 0.00 0.00 0.00 23 1010.5
20260905151816 87 0.0 0.0 0.00 0.00 0.00 21 1010.3
20260905150816 87 0.0 0.0 0.00 0.00 0.00 21 1010.1
20260905145817 87 0.0 0.0 0.00 0.00 0.00 21 1010.0
20260905144817 86 0.0 0.0 0.00 0.00 0.00 23 1009.9
20260905143816 86 252 0.0 0.0 0.00 0.00 0.00 23 1009.9
20260905142816 85 274 0.0 1.0 0.00 0.00 0.00 24 1009.7
20260905141817 85 0.0 0.0 0.00 0.00 0.00 23 1009.6
20260905140817 85 0.0 0.0 0.00 0.00 0.00 23 1009.4
20260905135816 85 0.0 0.0 0.00 0.00 0.00 22 1009.4
20260905134817 84 238 1.0 2.0 0.00 0.00 0.00 22 1009.2
20260905133817 84 259 1.0 2.0 0.00 0.00 0.00 21 1009.1
20260905132816 84 289 0.0 0.0 0.00 0.00 0.00 20 1009.0
20260905131817 85 0.0 0.0 0.00 0.00 0.00 19 1008.8
20260905130817 85 0.0 0.0 0.00 0.00 0.00 19 1008.6
20260905125816 85 0.0 0.0 0.00 0.00 0.00 18 1008.8
20260905124817 85 0.0 0.0 0.00 0.00 0.00 17 1008.6
20260905123817 85 0.0 0.0 0.00 0.00 0.00 18 1008.4
20260905122816 85 0.0 0.0 0.00 0.00 0.00 18 1008.4
20260905121817 85 0.0 0.0 0.00 0.00 0.00 17 1008.3
20260905120716 85 0.0 0.0 0.00 0.00 0.00 17 1008.2
20260905115717 85 0.0 0.0 0.00 0.00 0.00 17 1008.1
20260905114717 85 0.0 0.0 0.00 0.00 0.00 17 1008.0
20260905113717 86 342 0.0 1.0 0.00 0.00 0.00 17 1008.0
20260905112716 86 352 2.0 5.0 0.00 0.00 0.00 17 1007.9
20260905111717 86 353 3.0 5.0 0.00 0.00 0.00 17 1008.0
20260905110716 86 352 1.0 5.0 0.00 0.00 0.00 18 1008.1
20260905105716 86 350 2.0 7.0 0.00 0.00 0.00 18 1008.2
20260905104717 87 352 1.0 4.0 0.00 0.00 0.00 20 1008.2
20260905103716 87 352 1.0 3.0 0.00 0.00 0.00 22 1008.2
20260905102717 87 15 1.0 4.0 0.00 0.00 0.00 31 1008.3
20260905101716 86 328 2.0 5.0 0.00 0.00 0.00 42 1008.3
20260905100717 86 0.0 0.0 0.00 0.00 0.00 44 1008.4
20260905095716 86 0.0 0.0 0.00 0.00 0.00 48 1008.3
20260905094716 86 0.0 0.0 0.00 0.00 0.00 53 1008.5
20260905093717 86 250 1.0 3.0 0.00 0.00 0.00 55 1008.5
20260905092720 86 0.0 0.0 0.00 0.00 0.00 55 1008.5
20260905091716 86 0.0 0.0 0.00 0.00 0.00 54 1008.5
20260905090717 86 236 2.0 3.0 0.00 0.00 0.00 55 1008.6
20260905085717 85 0.0 0.0 0.00 0.00 0.00 55 1008.6
20260905084716 86 221 0.0 0.0 0.00 0.00 0.00 53 1008.5
20260905083717 86 0.0 0.0 0.00 0.00 0.00 53 1008.6
20260905082717 86 261 1.0 4.0 0.00 0.00 0.00 53 1008.7
20260905081716 86 278 5.0 7.0 0.00 0.00 0.00 54 1008.7
20260905080717 87 175 0.0 1.0 0.00 0.00 0.00 53 1008.7
20260905075717 87 171 1.0 6.0 0.00 0.00 0.00 53 1008.5
20260905074716 87 157 3.0 6.0 0.00 0.00 0.00 51 1008.5
20260905073717 87 160 6.0 9.0 0.00 0.00 0.00 51 1008.4
20260905072716 87 157 4.0 8.0 0.00 0.00 0.00 51 1008.4
20260905071717 88 157 6.0 8.0 0.00 0.00 0.00 50 1008.3
20260905070717 88 154 5.0 8.0 0.00 0.00 0.00 50 1008.2
20260905065716 88 157 6.0 9.0 0.00 0.00 0.00 49 1008.2
20260905064717 88 160 6.0 8.0 0.00 0.00 0.00 47 1008.2
20260905063717 89 170 4.0 8.0 0.00 0.00 0.00 46 1008.2
20260905062717 88 176 2.0 5.0 0.00 0.00 0.00 45 1008.1
20260905062517 89 167 4.0 6.0 0.00 0.00 0.00 44 1008.1
20260905061917 89 159 4.0 7.0 0.00 0.00 0.00 44 1008.1
20260905060917 89 146 5.0 8.0 0.00 0.00 0.00 44 1008.0
20260905060717 90 151 5.0 7.0 0.00 0.00 0.00 44 1008.1
20260905055717 90 150 8.0 10.0 0.00 0.00 0.00 45 1008.1
20260905054717 90 155 7.0 11.0 0.00 0.00 0.00 45 1008.0
20260905053717 91 151 7.0 10.0 0.00 0.00 0.00 41 1008.0
20260905052716 91 164 4.0 7.0 0.00 0.00 0.00 36 1007.9
20260905051717 91 157 6.0 10.0 0.00 0.00 0.00 34 1007.9
20260905050717 91 159 7.0 9.0 0.00 0.00 0.00 28 1007.9
20260905045717 91 148 6.0 8.0 0.00 0.00 0.00 30 1007.9
20260905044716 91 174 6.0 8.0 0.00 0.00 0.00 30 1007.8
20260905043717 92 187 5.0 7.0 0.00 0.00 0.00 29 1007.6
20260905042717 92 188 1.0 4.0 0.00 0.00 0.00 28 1007.5
20260905041717 92 192 2.0 6.0 0.00 0.00 0.00 27 1007.5
20260905040717 93 201 2.0 7.0 0.00 0.00 0.00 26 1007.4
20260905035717 93 206 1.0 4.0 0.00 0.00 0.00 26 1007.2
20260905034716 94 196 3.0 6.0 0.00 0.00 0.00 26 1007.1
20260905033717 94 198 1.0 3.0 0.00 0.00 0.00 26 1006.9
20260905032717 95 204 4.0 10.0 0.00 0.00 0.00 26 1006.8
20260905031716 96 202 6.0 10.0 0.00 0.00 0.00 26 1006.5
20260905030717 96 208 2.0 5.0 0.00 0.00 0.00 27 1006.2
20260905025717 97 199 6.0 10.0 0.00 0.00 0.00 27 1006.0
20260905024716 97 207 5.0 7.0 0.00 0.00 0.00 27 1005.8
20260905023717 98 182 7.0 11.0 0.00 0.00 0.00 26 1005.7
20260905022716 99 176 9.0 12.0 0.00 0.00 0.00 26 1005.5
20260905021716 99 169 6.0 8.0 0.00 0.00 0.00 26 1005.4
20260905020717 100 170 2.0 5.0 0.00 0.00 0.00 26 1005.3
20260905015717 100 176 4.0 8.0 0.00 0.00 0.00 26 1005.2
20260905014717 101 175 9.0 12.0 0.00 0.00 0.00 25 1005.2
20260905013716 102 187 7.0 10.0 0.00 0.00 0.00 25 1005.1
20260905012717 102 204 5.0 10.0 0.00 0.00 0.00 25 1005.0
20260905011717 103 185 7.0 10.0 0.00 0.00 0.00 23 1005.0
20260905010717 104 0.0 0.0 0.00 0.00 0.00 19 1005.0
20260905005716 104 245 1.0 4.0 0.00 0.00 0.00 19 1005.0
20260905004717 104 277 2.0 5.0 0.00 0.00 0.00 19 1005.0
20260905003717 104 237 2.0 6.0 0.00 0.00 0.00 20 1005.0
20260905002716 103 226 2.0 5.0 0.00 0.00 0.00 20 1005.0